Regional Weather Roundup
Issued by NWS

Home | Current Version | Previous Version | Text Only | Print | Product List | Glossary Off
Versions: 1 2 3 4 5 6 7 8 9 10 11 12 13 14 15 16 17 18 19 20 21 22 23 24 25 26 27 28 29 30 31 32 33 34 35 36 37 38 39 40 41 42 43 44 45 46 47 48 49 50

467
ASUS43 KMKX 211021
RWRWI

WISCONSIN REGIONAL WEATHER ROUNDUP
NATIONAL WEATHER SERVICE MILWAUKEE/SULLIVAN WI
500 AM CDT FRI JUL 21 2017

NOTE: "FAIR" INDICATES FEW OR NO CLOUDS BELOW 12,000 FEET WITH NO
SIGNIFICANT WEATHER AND/OR OBSTRUCTIONS TO VISIBILITY.

WIZ001-002-006>008-014>016-023>028-211100-
NORTHWEST WISCONSIN

CITY           SKY/WX    TMP DP  RH WIND       PRES   REMARKS
SUPERIOR ARPT  NOT AVBL
ASHLAND        CLOUDY    61  60  97 CALM      29.95F
HAYWARD        CLOUDY    59  57  93 CALM      29.96F
SIREN          CLOUDY    65  64  93 CALM      29.96S
CUMBERLAND     CLOUDY    61  61 100 S3        29.98F FOG
RICE LAKE      CLOUDY    62  62  98 CALM      29.99F FOG
CHETEK         CLOUDY    63  63 100 CALM      29.98F
LADYSMITH      CLOUDY    62  61  96 CALM      29.99F FOG
EAU CLAIRE     PTCLDY    62  62 100 CALM      29.97S FOG
MENOMONIE      FOG       63  63  99 E3        29.96F VSB 1/4
NEW RICHMOND   PTCLDY    64  64  99 E6        29.95F FOG
OSCEOLA        PTCLDY    66  66 100 E3        29.97F FOG
$$

WIZ003>005-009-010-017-018-211100-
NORTH CENTRAL WISCONSIN

CITY           SKY/WX    TMP DP  RH WIND       PRES   REMARKS
MANITOWISH WTR CLOUDY    55  55 100 CALM      30.00F FOG
ARBOR VITAE    CLOUDY    62  60  94 CALM      30.00S
WOODRUFF       CLOUDY    62  60  94 CALM      30.00S
RHINELANDER    CLOUDY    60  60 100 E3        30.00F FOG
EAGLE RIVER    CLOUDY    58  58 100 CALM      30.01S
LAND O LAKES   CLEAR     55  55 100 CALM      30.02F FOG
PHILLIPS       PTCLDY    59  59 100 CALM      29.98F
TOMAHAWK         N/A     55  55  97 CALM      30.01S FOG
MEDFORD        FOG       58  57  99 CALM      30.01S VSB 1/4
MERRILL        CLOUDY    56  56 100 CALM      30.01S
$$

WIZ029-030-035-036-043>047-211100-
CENTRAL WISCONSIN

CITY           SKY/WX    TMP DP  RH WIND       PRES   REMARKS
WAUSAU         CLEAR     63  62  97 CALM      30.00R
MOSINEE        FOG       61  61 100 S5        30.03R VSB 1/4
MARSHFIELD     FOG       62  60  93 SW3       30.01R VSB 1/2
STEVENS POINT  MOCLDY    59  59 100 CALM      30.03R FOG
WAUPACA        CLOUDY    64  64  98 CALM      30.01R FOG
WAUTOMA        PTCLDY    63  62  97 CALM      30.02R
WISC RAPIDS    FOG       62  62 100 CALM      30.02S VSB 3/4
CAMP DOUGLAS   FOG       63  63 100 CALM      29.99F VSB 1/2
$$

WIZ011>013-019>022-031-037>040-048>050-211100-
NORTHEAST WISCONSIN

CITY           SKY/WX    TMP DP  RH WIND       PRES   REMARKS
ANTIGO         PTCLDY    56  56  97 CALM      30.03R
SHAWANO          N/A     64  62  94 CALM      30.00R FOG
OCONTO         CLEAR     58  57  96 CALM      29.98R
STURGEON BAY     N/A     63  61  93 CALM      29.98R
GREEN BAY      PTCLDY    64  64 100 CALM      29.99R
MANITOWOC      CLOUDY    67  64  90 CALM      30.00R
APPLETON       PTCLDY    63  63 100 SW3       30.00R
CLINTONVILLE   CLOUDY    61  59  94 SW5       30.01R
OSHKOSH        PTCLDY    68  65  90 W7        30.00R
$$

WIZ032>034-041-042-053>061-211100-
SOUTHWEST WISCONSIN

CITY           SKY/WX    TMP DP  RH WIND       PRES   REMARKS
LA CROSSE      CLOUDY    70  68  93 E8        29.95F
SPARTA         CLOUDY    59  59 100 CALM      29.99S FOG
VIROQUA        CLOUDY    66  66 100 E7        29.98S
BOSCOBEL       FOG       70  69  97 CALM      29.96R VSB 1/4
PRAIRIE DU CHI CLOUDY    69  67  95 CALM      29.95R
PLATTEVILLE    CLOUDY    73  73 100 E5        29.97S
$$

WIZ056-057-062-063-064-067-068-211100-
SOUTH CENTRAL WISCONSIN

CITY           SKY/WX    TMP DP  RH WIND       PRES   REMARKS
REEDSBURG      CLOUDY    64  64 100 CALM      29.99R FOG
BARABOO/DELLS  CLOUDY    66  64  96 CALM      29.99F FOG
LONE ROCK      FOG       67  67 100 S7        29.97S VSB 1/4
MINERAL POINT  CLOUDY    70  70 100 E5        29.98S
MADISON        CLOUDY    67  66  97 CALM      29.98S
MIDDLETON      CLOUDY    64  64 100 CALM      30.00S
WATERTOWN      CLOUDY    65  65 100 CALM      30.00S
MONROE         CLOUDY    72  68  88 E3        29.99S
JANESVILLE     CLOUDY    72  72 100 S5        30.00R
$$

WIZ051-052-058>065-066-070>072-211100-
SOUTHEAST WISCONSIN

CITY           SKY/WX    TMP DP  RH WIND       PRES   REMARKS
MILWAUKEE      CLOUDY    73  71  93 NW6       29.99R
WAUKESHA       CLOUDY    66  66 100 CALM      30.02R
MILWAUKEE/TIMM CLOUDY    68  64  88 CALM      30.01R
RACINE         CLOUDY    69  69 100 N3        30.01R
KENOSHA        CLOUDY    67  66  97 W5        30.00S FOG
FOND DU LAC    CLOUDY    68  64  87 CALM      30.01R
SHEBOYGAN      CLOUDY    64  64 100 W3        30.00R
WEST BEND      CLOUDY    64  64 100 CALM      30.01R
JUNEAU         CLOUDY    68  67  97 CALM      30.02S
$$

LSZ147-162-211100-
LAKE SUPERIOR

STATION/POSITION TIME  TEMP    WIND        PRES    WAVE
                       AIR SEA DIR/SP/G            HT/PER
                 (UTC) (F)     (DEG/KT/KT) (MB)    (FT/S)
W MID LAKE BUOY  0950   53 47  350/  2/  2 1014.5S   0
DEVILS ISLAND    1000   67      50/  3/  3 1014.0F
SAXON HARBOR     0930   64     170/  5/  7 1014.2S
$$

LMZ867-665-643>646-211100-
LAKE MICHIGAN

STATION/POSITION TIME  TEMP    WIND        PRES    WAVE
                       AIR SEA DIR/SP/G            HT/PER
                 (UTC) (F)     (DEG/KT/KT) (MB)    (FT/S)
CHAMBERS ISLAND  0940   64     190/  1/  1 1014.2S
S GREEN BAY BUOY 1000   71 72  270/  4/  4 1014.8
N MID LAKE BUOY  0950   67 65  180/  6/  8 1014.9R   1/ 4
NORTHPORT PIER   0940   67     190/  4/  6 1014.6R
KEWAUNEE LAKESHO 0954   66     310/  3/  4 1014.6R
SHEBOYGAN LAKESH 1000   72     260/  3/  4 1015.1R
PORT WASHINGTON  0940   72     280/  7/  9 1016.3R
ATWATER BUOY     0909   71 67  320/  4/  6 1015.5R
MILWAUKEE LAKESH 1000   73     320/  4/  5   N/A
S MID LAKE BUOY  0950   71 70  310/  6/  8 1015.1F   0
KENOSHA   LAKESH 1000   71     310/  4/  4 1015.2
$$

TC  - TEMPERATURE IN CELSIUS
VSB - VISIBILITY IN STATUTE MILES
WCI - WIND CHILL INDEX
HX  - HEAT INDEX





USA.gov is the U.S. government's official web portal to all federal, state and local government web resources and services.